RYR771 EGKK-EDDK

Flight info

Callsign RYR771
Flight time N/A
Altitude 23000
Route ODVIK2Z ODVIK Y311 DVR L9 KONAN/N0423F310 UL607 SPI/N0371F230 T857 DENOV T861 ERUKI ERUKI1B
Aircraft B738/M-SDE2E3FGHIRWXY/LB1

Departure

Time 2026-05-04 20:14
Airport London Gatwick Airport (EGKK)

Arrival

Time N/A
Airport Cologne Bonn Airport (EDDK)
Time Latitude Longitude Altitude Speed Heading
2026-05-04 19:29 51.15503 -0.16773 204 ft 0 kts 348°
2026-05-04 19:45 51.15500 -0.16772 204 ft 3 kts 348°
2026-05-04 19:46 51.15474 -0.16763 216 ft 4 kts 338°
2026-05-04 19:46 51.15452 -0.16741 217 ft 4 kts 310°
2026-05-04 19:46 51.15441 -0.16711 212 ft 1 kts 289°
2026-05-04 19:48 51.15441 -0.16714 212 ft 1 kts 289°
2026-05-04 19:48 51.15447 -0.16757 217 ft 7 kts 274°
2026-05-04 19:48 51.15437 -0.16876 204 ft 15 kts 259°
2026-05-04 19:48 51.15410 -0.17073 207 ft 18 kts 256°
2026-05-04 19:49 51.15394 -0.17146 209 ft 0 kts 244°
2026-05-04 19:52 51.15394 -0.17148 208 ft 1 kts 244°
2026-05-04 19:52 51.15379 -0.17209 210 ft 12 kts 252°
2026-05-04 19:52 51.15328 -0.17358 206 ft 19 kts 211°
2026-05-04 19:52 51.15279 -0.17589 203 ft 27 kts 258°
2026-05-04 19:53 51.15233 -0.17905 203 ft 28 kts 257°
2026-05-04 19:53 51.15206 -0.18101 203 ft 6 kts 257°
2026-05-04 19:53 51.15204 -0.18110 203 ft 0 kts 257°
2026-05-04 19:57 51.15199 -0.18151 209 ft 9 kts 258°
2026-05-04 19:57 51.15178 -0.18310 203 ft 20 kts 259°
2026-05-04 19:57 51.15144 -0.18582 207 ft 30 kts 258°
2026-05-04 19:57 51.15096 -0.18949 207 ft 38 kts 258°
2026-05-04 19:58 51.15036 -0.19389 210 ft 42 kts 257°
2026-05-04 19:58 51.14987 -0.19725 208 ft 29 kts 257°
2026-05-04 19:58 51.14946 -0.20026 207 ft 26 kts 258°
2026-05-04 19:58 51.14937 -0.20099 206 ft 0 kts 258°
2026-05-04 20:00 51.14933 -0.20128 204 ft 10 kts 259°
2026-05-04 20:00 51.14904 -0.20336 205 ft 27 kts 258°
2026-05-04 20:00 51.14862 -0.20644 203 ft 28 kts 257°
2026-05-04 20:00 51.14821 -0.20942 207 ft 27 kts 258°
2026-05-04 20:01 51.14781 -0.21184 209 ft 21 kts 252°
2026-05-04 20:01 51.14769 -0.21261 214 ft 0 kts 259°
2026-05-04 20:02 51.14769 -0.21262 214 ft 1 kts 259°
2026-05-04 20:02 51.14764 -0.21302 208 ft 0 kts 258°
2026-05-04 20:03 51.14764 -0.21309 207 ft 1 kts 258°
2026-05-04 20:03 51.14762 -0.21318 205 ft 1 kts 258°
2026-05-04 20:03 51.14761 -0.21326 203 ft 1 kts 258°
2026-05-04 20:03 51.14760 -0.21334 203 ft 1 kts 258°
2026-05-04 20:04 51.14759 -0.21343 213 ft 0 kts 256°
2026-05-04 20:04 51.14758 -0.21348 211 ft 2 kts 253°
2026-05-04 20:05 51.14742 -0.21384 207 ft 7 kts 221°
2026-05-04 20:05 51.14710 -0.21395 203 ft 0 kts 173°
2026-05-04 20:09 51.14685 -0.21385 212 ft 7 kts 158°
2026-05-04 20:09 51.14665 -0.21363 212 ft 0 kts 140°
2026-05-04 20:09 51.14664 -0.21362 212 ft 1 kts 139°
2026-05-04 20:09 51.14660 -0.21355 212 ft 0 kts 137°
2026-05-04 20:10 51.14659 -0.21354 212 ft 0 kts 137°
2026-05-04 20:10 51.14649 -0.21340 203 ft 7 kts 141°
2026-05-04 20:10 51.14614 -0.21320 209 ft 1 kts 168°
2026-05-04 20:10 51.14612 -0.21319 210 ft 0 kts 167°
2026-05-04 20:12 51.14596 -0.21313 209 ft 5 kts 167°
2026-05-04 20:12 51.14547 -0.21276 209 ft 11 kts 142°
2026-05-04 20:12 51.14517 -0.21162 207 ft 12 kts 87°
2026-05-04 20:12 51.14518 -0.21141 202 ft 0 kts 79°
2026-05-04 20:14 51.14549 -0.20920 204 ft 56 kts 77°
2026-05-04 20:14 51.14705 -0.19781 205 ft 151 kts 78°
2026-05-04 20:14 51.14990 -0.17857 743 ft 191 kts 75°
2026-05-04 20:14 51.15296 -0.15810 2169 ft 185 kts 76°
2026-05-04 20:15 51.15558 -0.13732 3340 ft 199 kts 77°
2026-05-04 20:15 51.15846 -0.11463 4330 ft 214 kts 77°
2026-05-04 20:15 51.16163 -0.09147 5583 ft 222 kts 77°
2026-05-04 20:15 51.16530 -0.06500 6000 ft 268 kts 77°
2026-05-04 20:16 51.16933 -0.03338 6032 ft 323 kts 82°
2026-05-04 20:16 51.16999 0.00529 6040 ft 374 kts 91°
2026-05-04 20:16 51.16846 0.04834 6019 ft 390 kts 93°
2026-05-04 20:16 51.16698 0.09019 6024 ft 368 kts 92°
2026-05-04 20:17 51.16596 0.12957 6009 ft 344 kts 91°
2026-05-04 20:17 51.16533 0.16649 6000 ft 323 kts 90°
2026-05-04 20:17 51.16538 0.20130 5986 ft 305 kts 89°
2026-05-04 20:17 51.16558 0.23419 5998 ft 289 kts 89°
2026-05-04 20:18 51.16572 0.26530 5989 ft 274 kts 89°
2026-05-04 20:18 51.16579 0.29491 5994 ft 260 kts 89°
2026-05-04 20:18 51.16583 0.32302 6003 ft 247 kts 89°
2026-05-04 20:18 51.16586 0.34081 5989 ft 238 kts 89°
2026-05-04 20:19 51.16590 0.36650 5994 ft 226 kts 89°
2026-05-04 20:19 51.16594 0.39123 6003 ft 222 kts 89°
2026-05-04 20:19 51.16596 0.41570 6005 ft 221 kts 89°
2026-05-04 20:19 51.16598 0.44011 6014 ft 220 kts 89°
2026-05-04 20:20 51.16599 0.46448 6018 ft 220 kts 89°
2026-05-04 20:20 51.16599 0.48884 6020 ft 220 kts 89°
2026-05-04 20:20 51.16600 0.51346 6243 ft 226 kts 89°
2026-05-04 20:20 51.16599 0.53863 7078 ft 226 kts 89°
2026-05-04 20:21 51.16599 0.56361 8003 ft 226 kts 90°
2026-05-04 20:21 51.16597 0.58888 8861 ft 230 kts 90°
2026-05-04 20:21 51.16593 0.64054 10532 ft 236 kts 90°
2026-05-04 20:22 51.16589 0.66669 11358 ft 237 kts 90°
2026-05-04 20:22 51.16586 0.69303 12188 ft 238 kts 90°
2026-05-04 20:22 51.16581 0.71959 13000 ft 241 kts 90°
2026-05-04 20:22 51.16576 0.74641 13826 ft 243 kts 90°
2026-05-04 20:23 51.16571 0.77352 14522 ft 247 kts 90°
2026-05-04 20:23 51.16565 0.80121 15218 ft 251 kts 91°
2026-05-04 20:23 51.16557 0.82918 15944 ft 254 kts 91°
2026-05-04 20:23 51.16549 0.85746 16655 ft 257 kts 91°